Regional Weather Roundup
Issued by NWS Charleston, WV

Home | Current Version | Previous Version | Graphics & Text | Print | Product List | Glossary On
Versions: 1 2 3 4 5 6 7 8 9 10 11 12 13 14 15 16 17 18 19 20 21 22 23 24 25 26 27 28 29 30 31 32 33 34 35 36 37 38 39 40 41 42 43 44 45
000
ASUS41 KRLX 240210
RWRRLX
West Virginia Regional Weather Roundup
National Weather Service Charleston WV
900 PM EST THU FEB 23 2017

Note: "fair" indicates few or no clouds below 12,000 feet with no
significant weather and/or obstructions to visibility.

WVZ003-240300-
Northern Panhandle of West Virginia

CITY           SKY/WX    TMP DP  RH WIND       PRES   REMARKS
WHEELING       CLOUDY    62  51  67 S7        29.82S
$$

WVZ009-240300-
Northwest West Virginia

CITY           SKY/WX    TMP DP  RH WIND       PRES   REMARKS
PARKERSBURG    CLOUDY    63  53  70 S3        29.86R
$$

WVZ006-240300-
Western West Virginia

CITY           SKY/WX    TMP DP  RH WIND       PRES   REMARKS
HUNTINGTON     CLEAR     59  54  83 E3        29.81F
$$

WVZ015-240300-
West Central West Virginia

CITY           SKY/WX    TMP DP  RH WIND       PRES   REMARKS
CHARLESTON     CLEAR     57  53  86 CALM      29.83S
$$

WVZ022-031-240300-
North Central West Virginia

CITY           SKY/WX    TMP DP  RH WIND       PRES   REMARKS
CLARKSBURG     CLOUDY    58  51  78 CALM      29.86R
MORGANTOWN     CLOUDY    62  50  64 S5        29.86R
$$

WVZ025-035-042-045-240300-
Southern West Virginia

CITY           SKY/WX    TMP DP  RH WIND       PRES   REMARKS
BECKLEY        CLEAR     57  50  77 S8        29.90R
LOGAN            N/A     61  54  77 CALM      29.85F
BLUEFIELD      CLEAR     58  48  69 S5        29.92S
LEWISBURG      PTCLDY    55  49  80 CALM      29.91S
$$

WVZ047-240300-
Northern Mountains of West Virginia

CITY           SKY/WX    TMP DP  RH WIND       PRES   REMARKS
ELKINS         PTCLDY    50  45  83 CALM      29.89S
$$

WVZ052-240300-
Eastern Panhandle of West Virginia

CITY           SKY/WX    TMP DP  RH WIND       PRES   REMARKS
MARTINSBURG    PTCLDY    63  50  62 W3        29.83R
PETERSBURG     CLOUDY    59  50  72 CALM      29.86R
$$




USA.gov is the U.S. government's official web portal to all federal, state and local government web resources and services.